Weather History for KBMQ - September, 2013

Change the Weather History Date:

Monday, September 16, 2013

  Actual Average Record
Temperature  
Mean Temperature 82 °F -  
Max Temperature 91 °F 86 °F 96 °F (1997)
Min Temperature 73 °F 66 °F 59 °F (2008)
Cooling Degree Days 17    
Growing Degree Days 32 (Base 50)    
Moisture  
Dew Point 69 °F    
Average Humidity 75    
Maximum Humidity 96    
Minimum Humidity 42    
Precipitation  
Precipitation 0.99 in - - ()
Sea Level Pressure  
Sea Level Pressure 30.05 in    
Wind  
Wind Speed 5 mph (East)    
Max Wind Speed 14 mph    
Max Gust Speed 28 mph    
Visibility 8 miles    
Events Fog , Rain , Thunderstorm    
Averages and records for this station are not official NWS values.
T = Trace of Precipitation, MM = Missing Value Source: NWS Daily Summary

Daily Weather History Graph

Daily Weather History Graph

Search for Another Location

Airport or City:

Trip Planner

Search our weather history database for the weather conditions in past years. The results will help you decide how hot, cold, wet, or windy it might be!

Date:

Astronomy

Sep. 16, 2013 Rise Set
Actual Time 7:18 AM CDT 7:36 PM CDT
Civil Twilight 6:53 AM CDT 8:00 PM CDT
Nautical Twilight 6:25 AM CDT 8:29 PM CDT
Astronomical Twilight 5:57 AM CDT 8:57 PM CDT
Moon 5:39 PM CDT (9/16) 4:15 AM CDT (9/16)
Length of Visible Light 13h 07m
Length of Day
12h 18m
Waxing Gibbous, 90% of the Moon is Illuminated
Sep 16
Waxing Gibbous
Sep 19
Full
Sep 26
Last Quarter
Oct 4
New
Oct 11
First Quarter

Hourly Weather History & Observations

Time (CDT) Temp. Heat Index Dew Point Humidity Pressure Visibility Wind Dir Wind Speed Gust Speed Precip Events Conditions
12:53 AM 79.0 °F - 64.9 °F 62% 30.01 in 10.0 mi SE 4.6 mph - N/A   Clear
1:53 AM 78.1 °F - 66.0 °F 66% 30.01 in 10.0 mi Calm Calm - N/A   Clear
2:53 AM 77.0 °F - 66.9 °F 71% 30.01 in 10.0 mi Calm Calm - N/A   Clear
3:53 AM 73.9 °F - 66.9 °F 79% 30.01 in 10.0 mi Calm Calm - N/A   Clear
4:53 AM 75.0 °F - 68.0 °F 79% 30.01 in 10.0 mi Calm Calm - N/A   Partly Cloudy
5:53 AM 73.9 °F - 68.0 °F 82% 30.02 in 10.0 mi East 3.5 mph - N/A   Clear
6:39 AM 73.0 °F - 68.0 °F 84% 30.08 in 10.0 mi NE 3.5 mph - N/A   Mostly Cloudy
6:53 AM 73.9 °F - 69.1 °F 85% 30.04 in 10.0 mi Calm Calm - N/A   Overcast
7:53 AM 73.9 °F - 68.0 °F 82% 30.05 in 7.0 mi ENE 3.5 mph - N/A   Mostly Cloudy
8:10 AM 73.9 °F - 69.1 °F 85% 30.11 in 8.0 mi ENE 3.5 mph - N/A   Scattered Clouds
8:53 AM 75.9 °F - 69.1 °F 79% 30.06 in 9.0 mi ENE 4.6 mph - N/A   Clear
9:23 AM 78.1 °F - 70.0 °F 76% 30.12 in 8.0 mi NE 6.9 mph - N/A   Partly Cloudy
9:37 AM 79.0 °F - 71.1 °F 77% 30.12 in 8.0 mi Variable 4.6 mph - N/A   Mostly Cloudy
9:53 AM 78.1 °F - 70.0 °F 76% 30.06 in 9.0 mi East 5.8 mph - N/A   Mostly Cloudy
10:06 AM 79.0 °F - 69.1 °F 72% 30.12 in 10.0 mi East 4.6 mph - N/A   Scattered Clouds
10:32 AM 80.1 °F 82.7 °F 68.0 °F 67% 30.13 in 10.0 mi East 6.9 mph - N/A   Mostly Cloudy
10:53 AM 82.0 °F 84.9 °F 68.0 °F 62% 30.07 in 10.0 mi East 6.9 mph - N/A   Mostly Cloudy
11:50 AM 82.4 °F 85.4 °F 68.0 °F 62% 30.13 in 10.0 mi Variable 5.8 mph - N/A   Scattered Clouds
11:53 AM 84.0 °F 87.0 °F 68.0 °F 58% 30.07 in 10.0 mi East 8.1 mph - N/A   Scattered Clouds
12:53 PM 86.0 °F 88.8 °F 66.9 °F 53% 30.05 in 10.0 mi East 5.8 mph - N/A   Partly Cloudy
1:53 PM 88.0 °F 90.3 °F 66.0 °F 48% 30.02 in 10.0 mi ENE 9.2 mph - N/A   Partly Cloudy
2:53 PM 91.0 °F 93.0 °F 64.9 °F 42% 29.99 in 10.0 mi ESE 11.5 mph - N/A   Partly Cloudy
3:53 PM 90.0 °F 91.7 °F 64.9 °F 43% 29.96 in 10.0 mi ENE 13.8 mph 19.6 mph N/A   Partly Cloudy
4:27 PM 89.1 °F 91.0 °F 64.9 °F 45% 30.02 in 10.0 mi ENE 10.4 mph - N/A Thunderstorm Mostly Cloudy
4:42 PM 89.1 °F 91.3 °F 66.0 °F 46% 30.01 in 10.0 mi East 11.5 mph - N/A   Mostly Cloudy
4:53 PM 89.1 °F 91.3 °F 66.0 °F 46% 29.95 in 10.0 mi East 10.4 mph - N/A   Mostly Cloudy
5:28 PM 88.0 °F 89.6 °F 64.9 °F 46% 30.02 in 10.0 mi ESE 6.9 mph - N/A Thunderstorm Overcast
5:53 PM 78.1 °F - 71.1 °F 79% 29.98 in 8.0 mi SSE 8.1 mph 20.7 mph 0.00 in Rain , Thunderstorm Light Rain
5:59 PM 78.1 °F - 71.1 °F 79% 30.03 in 2.5 mi SSE 8.1 mph 19.6 mph 0.03 in Rain , Thunderstorm Thunderstorms and Rain
6:14 PM 77.0 °F - 71.1 °F 82% 30.03 in 5.0 mi SW 4.6 mph - 0.04 in Rain , Thunderstorm Light Rain
6:22 PM 77.0 °F - 72.0 °F 84% 30.03 in 10.0 mi Variable 3.5 mph - 0.04 in Rain , Thunderstorm Light Thunderstorms and Rain
6:53 PM 77.0 °F - 73.0 °F 88% 29.98 in 10.0 mi SW 6.9 mph - 0.04 in Thunderstorm Thunderstorm
7:02 PM 77.0 °F - 72.0 °F 84% 30.04 in 10.0 mi Calm Calm - N/A Thunderstorm Overcast
7:11 PM 75.9 °F - 71.1 °F 85% 30.06 in 1.8 mi ESE 10.4 mph 19.6 mph 0.10 in Rain , Thunderstorm Heavy Rain
7:17 PM 75.0 °F - 71.1 °F 87% 30.07 in 0.8 mi ESE 11.5 mph 19.6 mph 0.26 in Rain Heavy Rain
7:22 PM 73.9 °F - 71.1 °F 91% 30.07 in 0.2 mi East 11.5 mph 19.6 mph 0.59 in Fog , Rain Heavy Rain
7:36 PM 73.0 °F - 72.0 °F 96% 30.06 in 1.0 mi North 4.6 mph - 0.81 in Rain Light Rain
7:39 PM 73.0 °F - 71.1 °F 93% 30.06 in 2.5 mi North 4.6 mph - 0.81 in Rain , Thunderstorm Light Rain
7:45 PM 73.9 °F - 72.0 °F 93% 30.06 in 10.0 mi North 5.8 mph - 0.81 in Thunderstorm Thunderstorm
7:53 PM 73.9 °F - 72.0 °F 93% 30.02 in 10.0 mi North 6.9 mph - 0.81 in Rain , Thunderstorm Light Thunderstorms and Rain
8:02 PM 73.9 °F - 71.1 °F 91% 30.07 in 10.0 mi NNE 5.8 mph - 0.00 in   Overcast
8:53 PM 75.0 °F - 71.1 °F 87% 30.03 in 10.0 mi NNE 5.8 mph - 0.00 in   Overcast
9:31 PM 73.0 °F - 68.0 °F 84% 30.10 in 3.0 mi East 11.5 mph 27.6 mph 0.06 in Rain , Thunderstorm Heavy Thunderstorms and Rain
9:38 PM 73.0 °F - 69.1 °F 87% 30.10 in 2.5 mi SE 3.5 mph - 0.09 in Rain , Thunderstorm Thunderstorms and Rain
9:40 PM 73.0 °F - 69.1 °F 87% 30.10 in 3.0 mi SE 3.5 mph - 0.10 in Rain Rain
9:53 PM 73.9 °F - 70.0 °F 87% 30.04 in 5.0 mi Calm Calm - 0.14 in Rain , Thunderstorm Light Rain
10:09 PM 73.0 °F - 70.0 °F 90% 30.10 in 10.0 mi NNE 3.5 mph - 0.00 in Rain Light Rain
10:53 PM 73.9 °F - 70.0 °F 87% 30.06 in 10.0 mi NE 3.5 mph - 0.00 in   Partly Cloudy
11:53 PM 73.9 °F - 71.1 °F 91% 30.06 in 10.0 mi Calm Calm - N/A   Partly Cloudy